CZ-3C DEB, 40855

Orbit data source: Space-Track

CZ-3C DEB, 40855 is space debris in HEO originally from a launch on Fri, 24 Feb 2012 UTC launched from the Xichang Space Center, China (XSC). Debris objects in space refer to the collection of defunct objects orbiting the Earth. Examples of debris include non-operational satellites, rocket bodies, and fragments generated from explosions, collisions, or faulty payload assembly.

Loading next visibility...
Identifier
40855, 2012-008V
Orbit
HEO
Country
Flag of CNCN / PRC
Related business
Manufacturer
CALT
Mission
Spacecraft
Bus & Motor
Unknown
Mass
Unknown
Launch date (UTC)
2012-02-24 (14 years ago)
Launch vehicle
Unknown
Launch site
Xichang Space Center, China (XSC)
Object type
Payload
Rocket body
Debris
Shape & HBR
Unknown shape, 0.2 m
Radar Cross Section
Medium (>0.1 m² and <1 m²)

Expand to show TLE details & history
Last TLE update: 3 days ago

TLE from 3 days ago
0 CZ-3C DEB
1 40855U 12008V   26070.16945340 -.00000151  00000-0  26868-2 0  9990
2 40855  22.7182   9.7044 7060997 155.1997 357.1548  2.32107146 96065
Epoch: 2026-03-11T04:04Z
TLE epoch observation values (Epoch: 2026-03-11T04:04:00.773Z)
Latitude
16.72202°
Longitude
-85.66388°
Altitude
921.098 km
Speed
9.628 km/s
True Right ascension
09h 36m 42s
True Declination
16° 37' 47"
Sunlit
Object was in full shadow at epoch
Visualization orbit readout
Latitude
Unknown
Longitude
Unknown
Altitude
Unknown
Speed
Unknown
Apparent Right ascension
Unknown
Apparent Declination
Unknown
Sunlit
N/A
Visualization observer readout
Local Sidereal Time
10:15:52
Azimuth
Unknown
Elevation
Unknown
Doppler factor
Unknown
Orbital elements
Apogee altitude
34,738.684 km
Perigee altitude
704.829 km
Semi-major axis
24,099.894 km
Eccentricity
0.7061
Inclination
22.7182°
RAAN
9.7044°
Arg. of periapsis
155.1997°
True anomaly
337.18538°
Mean anomaly
357.1548°
Eccentric anomaly
350.42606°
Mean motion
0.58012 °/min
Orbital period
620.56 mins
BSTAR
0.0026868
Loading maneuver chart data...
Computing Atmospheric mass density...
Loading historical data...
Loading historical data...
Loading historical data...
Loading historical data...
Loading historical data...
Loading historical data...
Loading historical data...

Documentation

Showing up to 5 results
|